Regional Weather Roundup
Issued by NWS

Home | Current Version | Previous Version | Graphics & Text | Print | Product List | Glossary On
Versions: 1 2 3 4 5 6 7 8 9 10 11 12 13 14 15 16 17 18 19 20 21 22 23 24 25 26 27 28 29 30 31 32 33 34 35 36 37 38 39 40 41 42 43 44 45 46 47 48 49 50
000
ASUS44 KMEG 210400
RWRTN
TENNESSEE HOURLY STATE WEATHER ROUNDUP
NATIONAL WEATHER SERVICE MEMPHIS TN
1100 PM CDT MON OCT 20 2014

TNZ002-004-019-021-049-052-054-088>092-210500-
WEST TENNESSEE

CITY           SKY/WX    TMP DP  RH WIND       PRES   REMARKS
MEMPHIS INTL   CLEAR     58  52  80 CALM      30.04S
NWS MEMPHIS      N/A     54 N/A N/A MISG        N/A
JACKSON        CLEAR     54  50  86 CALM      30.03S
DYERSBURG      PTCLDY    59  45  58 SW7       30.04S
UNION CITY     MOCLDY    57  54  88 CALM      30.01R
PARIS          MOCLDY    55  52  88 SW6       30.02S
LEXINGTON      CLEAR     48  48 100 CALM      30.02S
SAVANNAH       CLEAR     48  48 100 CALM      30.04F
$$

TNZ008-025-027-028-033-062-065-066-210500-
NORTH MIDDLE TENNESSEE

CITY           SKY/WX    TMP DP  RH WIND       PRES   REMARKS
NASHVILLE      CLEAR     52  49  89 S5        30.02S
CLARKSVILLE    PTCLDY    58  52  80 SW5       30.00S
COOKEVILLE     CLEAR     45  45 100 CALM      30.02S
CROSSVILLE     CLEAR     52  46  80 W6        30.04S
$$

TNZ061-075-076-078-094-096-097-210500-
SOUTH MIDDLE TENNESSEE

CITY           SKY/WX    TMP DP  RH WIND       PRES   REMARKS
WINCHESTER     CLEAR     46  46 100 CALM      30.05S
MCMINNVILLE    CLEAR     48  48 100 CALM      30.03F
SHELBYVILLE    CLEAR     48  48 100 CALM      30.05S
$$

TNZ017-018-042-046-047-210500-
NORTHEAST TENNESSEE

CITY           SKY/WX    TMP DP  RH WIND       PRES   REMARKS
TRI CITIES     CLOUDY    55  50  83 CALM      30.00F
ELIZABETHTON   CLOUDY    52  48  87 CALM      30.01F
$$

TNZ012-013-036-069-073-074-210500-
CENTRAL EAST TENNESSEE

CITY           SKY/WX    TMP DP  RH WIND       PRES   REMARKS
KNOXVILLE      MOCLDY    55  51  86 S7        30.01S
OAK RIDGE      CLEAR     54  51  90 CALM      30.03S
GATLINBURG     MOCLDY    55  48  76 SW5       30.01F
MORRISTOWN     PTCLDY    55  52  88 SW6       30.02S
$$

TNZ083-085-099-210500-
SOUTHEAST TENNESSEE

CITY           SKY/WX    TMP DP  RH WIND       PRES   REMARKS
CHATTANOOGA    PTCLDY    53  50  89 CALM      30.03F
$$

SKY/WX REPORTED AS FAIR MEANS FEW OR NO CLOUDS BELOW
12 THOUSAND FEET.



USA.gov is the U.S. government's official web portal to all federal, state and local government web resources and services.